This is the latest recevied weather packets stored in our database for station/object W5DRO-13. If no packets are shown the sender has not sent any weather packets the latest 10 day(s).
| Time | Temp. | Humidity | Pressure | Rain* | Wind** | Luminosity | Snow |
|---|---|---|---|---|---|---|---|
| 1777416115 | 18.89° C | 66% | 1013.3 hPa | 0 mm | - | - | - |
| 1777415810 | 18.33° C | 69% | 1013.2 hPa | 0 mm | - | - | - |
| 1777415507 | 17.78° C | 69% | 1013.4 hPa | 0 mm | - | - | - |
| 1777415202 | 18.33° C | 69% | 1013.5 hPa | 0 mm | - | - | - |
| 1777414898 | 17.78° C | 70% | 1013.4 hPa | 0 mm | - | - | - |
| 1777414596 | 17.78° C | 71% | 1013.7 hPa | 0 mm | - | - | - |
| 1777414292 | 17.78° C | 72% | 1013.5 hPa | 0 mm | - | - | - |
| 1777413987 | 17.78° C | 72% | 1013.6 hPa | 0 mm | - | - | - |
| 1777413682 | 17.22° C | 73% | 1013.5 hPa | 0 mm | - | - | - |
| 1777413378 | 17.22° C | 72% | 1013.8 hPa | 0 mm | - | - | - |
| 1777413075 | 16.67° C | 73% | 1013.7 hPa | 0 mm | - | - | - |
| 1777412769 | 17.22° C | 73% | 1013.8 hPa | 0 mm | - | - | - |
| 1777412469 | 17.22° C | 73% | 1013.8 hPa | 0 mm | - | - | - |
| 1777412166 | 17.22° C | 71% | 1013.8 hPa | 0 mm | - | - | - |
| 1777411862 | 17.22° C | 72% | 1013.9 hPa | 0 mm | - | - | - |
| 1777411561 | 17.22° C | 71% | 1013.8 hPa | 0 mm | - | - | - |
| 1777411256 | 17.78° C | 72% | 1013.9 hPa | 0 mm | - | - | - |
| 1777410950 | 17.78° C | 72% | 1013.8 hPa | 0 mm | - | - | - |
| 1777410650 | 17.78° C | 71% | 1013.7 hPa | 0 mm | - | - | - |
| 1777410345 | 17.78° C | 73% | 1013.6 hPa | 0 mm | - | - | - |
| 1777410040 | 17.78° C | 70% | 1013.5 hPa | 0 mm | - | - | - |
| 1777409740 | 17.78° C | 70% | 1013.4 hPa | 0 mm | - | - | - |
| 1777409436 | 17.78° C | 70% | 1013.5 hPa | 0 mm | - | - | - |
| 1777409132 | 17.78° C | 71% | 1013.4 hPa | 0 mm | - | - | - |
| 1777408828 | 17.78° C | 72% | 1013.3 hPa | 0 mm | - | - | - |
* Rain latest hour (hover to see other rain measurements)
** Current wind speed in m/s (hover to see current wind gust speed)